Grub im Wienerwald
Wetterdaten: aktuell Donnerstag, 23.05.2019 01:06
Datum Zeit Temp. A. Feuchte A. Luftdruck Regen Wind Richtung Richtung Sonnenschein UV Solar Taupunkt Windchill Windben
23.05.2019 01:06 11,7 C 95 % 1014,3 hPa 0,0 l/m 8,1 km/h N-NW 331 0 min 0,0 UV-I 0 W/m 10,9 C 10,6 C 16,1 km/h
23.05.2019 01:03 11,7 C 95 % 1014,3 hPa 0,0 l/m 11,8 km/h NW 321 0 min 0,0 UV-I 0 W/m 10,9 C 8,6 C 20,9 km/h
23.05.2019 01:00 11,7 C 95 % 1014,3 hPa 0,0 l/m 7,6 km/h W-NW 298 0 min 0,0 UV-I 0 W/m 10,9 C 10,9 C 14,5 km/h
23.05.2019 00:57 11,7 C 95 % 1014,2 hPa 0,2 l/m 10,8 km/h NW 310 0 min 0,0 UV-I 0 W/m 10,9 C 9,1 C 17,7 km/h
23.05.2019 00:54 11,8 C 95 % 1014,2 hPa 0,0 l/m 13,0 km/h N-NW 338 0 min 0,0 UV-I 0 W/m 11,0 C 8,1 C 20,9 km/h
23.05.2019 00:51 11,8 C 95 % 1014,1 hPa 0,0 l/m 8,3 km/h N-NW 330 0 min 0,0 UV-I 0 W/m 11,0 C 10,6 C 14,5 km/h
23.05.2019 00:48 11,8 C 95 % 1014,1 hPa 0,0 l/m 10,4 km/h W-NW 288 0 min 0,0 UV-I 0 W/m 11,0 C 9,4 C 16,1 km/h
23.05.2019 00:45 11,8 C 95 % 1014,1 hPa 0,0 l/m 7,5 km/h W-NW 302 0 min 0,0 UV-I 0 W/m 11,0 C 11,1 C 16,1 km/h
23.05.2019 00:42 11,8 C 95 % 1014,2 hPa 0,2 l/m 10,1 km/h N-NW 338 0 min 0,0 UV-I 0 W/m 11,0 C 9,5 C 14,5 km/h
23.05.2019 00:39 11,8 C 95 % 1014,1 hPa 0,0 l/m 8,8 km/h N-NW 332 0 min 0,0 UV-I 0 W/m 11,0 C 10,3 C 17,7 km/h
23.05.2019 00:36 11,8 C 95 % 1014,2 hPa 0,0 l/m 9,7 km/h N-NW 338 0 min 0,0 UV-I 0 W/m 11,0 C 9,7 C 19,3 km/h
23.05.2019 00:33 11,8 C 95 % 1014,1 hPa 0,0 l/m 8,0 km/h N-NW 335 0 min 0,0 UV-I 0 W/m 11,0 C 10,7 C 14,5 km/h
23.05.2019 00:30 11,8 C 95 % 1014,1 hPa 0,0 l/m 13,5 km/h N-NW 331 0 min 0,0 UV-I 0 W/m 11,0 C 7,9 C 20,9 km/h
23.05.2019 00:27 11,8 C 95 % 1014,2 hPa 0,0 l/m 10,3 km/h N-NW 333 0 min 0,0 UV-I 0 W/m 11,0 C 9,4 C 16,1 km/h
23.05.2019 00:24 11,8 C 95 % 1014,2 hPa 0,0 l/m 7,9 km/h N-NW 329 0 min 0,0 UV-I 0 W/m 11,0 C 10,8 C 14,5 km/h
23.05.2019 00:21 11,8 C 95 % 1014,2 hPa 0,0 l/m 11,3 km/h N-NW 333 0 min 0,0 UV-I 0 W/m 11,0 C 8,9 C 20,9 km/h
23.05.2019 00:18 11,8 C 95 % 1014,2 hPa 0,0 l/m 12,6 km/h NW 311 0 min 0,0 UV-I 0 W/m 11,0 C 8,3 C 25,7 km/h
23.05.2019 00:15 11,8 C 95 % 1014,2 hPa 0,0 l/m 11,4 km/h W-NW 292 0 min 0,0 UV-I 0 W/m 11,0 C 8,9 C 20,9 km/h
23.05.2019 00:12 11,8 C 95 % 1014,1 hPa 0,0 l/m 10,4 km/h N-NW 334 0 min 0,0 UV-I 0 W/m 11,0 C 9,4 C 16,1 km/h
23.05.2019 00:09 11,8 C 95 % 1014,0 hPa 0,0 l/m 11,6 km/h N 350 0 min 0,0 UV-I 0 W/m 11,0 C 8,8 C 24,1 km/h
23.05.2019 00:06 11,8 C 95 % 1014,0 hPa 0,0 l/m 8,2 km/h N 360 0 min 0,0 UV-I 0 W/m 11,0 C 10,6 C 12,9 km/h
23.05.2019 00:03 11,8 C 94 % 1014,0 hPa 0,2 l/m 8,7 km/h NW 304 0 min 0,0 UV-I 0 W/m 10,9 C 10,3 C 16,1 km/h
23.05.2019 00:00 11,8 C 94 % 1014,0 hPa 0,0 l/m 9,8 km/h N-NW 340 0 min 0,0 UV-I 0 W/m 10,9 C 9,7 C 17,7 km/h
22.05.2019 23:57 11,8 C 95 % 1013,9 hPa 0,0 l/m 12,2 km/h W-NW 294 0 min 0,0 UV-I 0 W/m 11,0 C 8,5 C 19,3 km/h
22.05.2019 23:54 11,8 C 95 % 1013,9 hPa 0,0 l/m 9,9 km/h N-NW 334 0 min 0,0 UV-I 0 W/m 11,0 C 9,6 C 19,3 km/h
22.05.2019 23:51 11,8 C 95 % 1013,9 hPa 0,0 l/m 12,9 km/h NW 310 0 min 0,0 UV-I 0 W/m 11,0 C 8,2 C 24,1 km/h
22.05.2019 23:48 11,8 C 94 % 1013,9 hPa 0,2 l/m 9,2 km/h N-NW 331 0 min 0,0 UV-I 0 W/m 10,9 C 10,0 C 14,5 km/h
22.05.2019 23:45 11,8 C 94 % 1013,9 hPa 0,0 l/m 10,5 km/h N-NW 342 0 min 0,0 UV-I 0 W/m 10,9 C 9,3 C 17,7 km/h
22.05.2019 23:42 11,9 C 94 % 1013,8 hPa 0,0 l/m 10,5 km/h N-NW 342 0 min 0,0 UV-I 0 W/m 11,0 C 9,4 C 20,9 km/h
22.05.2019 23:39 11,9 C 94 % 1013,8 hPa 0,0 l/m 11,1 km/h N-NW 332 0 min 0,0 UV-I 0 W/m 11,0 C 9,1 C 17,7 km/h
22.05.2019 23:36 11,9 C 94 % 1013,8 hPa 0,0 l/m 12,2 km/h N-NW 348 0 min 0,0 UV-I 0 W/m 11,0 C 8,6 C 24,1 km/h
22.05.2019 23:33 11,9 C 94 % 1013,7 hPa 0,0 l/m 8,9 km/h W-NW 299 0 min 0,0 UV-I 0 W/m 11,0 C 10,3 C 14,5 km/h
22.05.2019 23:30 11,9 C 94 % 1013,7 hPa 0,0 l/m 11,7 km/h NW 326 0 min 0,0 UV-I 0 W/m 11,0 C 8,8 C 22,5 km/h
22.05.2019 23:27 11,9 C 94 % 1013,7 hPa 0,0 l/m 10,8 km/h N-NW 331 0 min 0,0 UV-I 0 W/m 11,0 C 9,3 C 17,7 km/h
22.05.2019 23:24 11,9 C 94 % 1013,6 hPa 0,2 l/m 7,3 km/h N-NW 331 0 min 0,0 UV-I 0 W/m 11,0 C 11,3 C 19,3 km/h
22.05.2019 23:21 11,9 C 94 % 1013,7 hPa 0,0 l/m 9,4 km/h N-NW 342 0 min 0,0 UV-I 0 W/m 11,0 C 10,0 C 19,3 km/h
22.05.2019 23:18 11,9 C 94 % 1013,7 hPa 0,0 l/m 11,3 km/h N 351 0 min 0,0 UV-I 0 W/m 11,0 C 9,0 C 17,7 km/h
22.05.2019 23:15 11,9 C 94 % 1013,7 hPa 0,0 l/m 9,3 km/h N-NW 347 0 min 0,0 UV-I 0 W/m 11,0 C 10,1 C 16,1 km/h
22.05.2019 23:12 11,9 C 94 % 1013,8 hPa 0,0 l/m 8,1 km/h N-NW 346 0 min 0,0 UV-I 0 W/m 11,0 C 10,8 C 17,7 km/h
22.05.2019 23:09 12,0 C 94 % 1013,7 hPa 0,0 l/m 10,6 km/h N 355 0 min 0,0 UV-I 0 W/m 11,1 C 9,5 C 14,5 km/h
22.05.2019 23:06 12,0 C 94 % 1013,6 hPa 0,0 l/m 10,3 km/h N-NW 327 0 min 0,0 UV-I 0 W/m 11,1 C 9,6 C 16,1 km/h
22.05.2019 23:03 12,0 C 94 % 1013,6 hPa 0,2 l/m 8,6 km/h N-NW 338 0 min 0,0 UV-I 0 W/m 11,1 C 10,6 C 14,5 km/h
22.05.2019 23:00 12,0 C 94 % 1013,7 hPa 0,0 l/m 11,2 km/h N-NW 327 0 min 0,0 UV-I 0 W/m 11,1 C 9,2 C 19,3 km/h
22.05.2019 22:57 12,1 C 94 % 1013,6 hPa 0,0 l/m 10,1 km/h N 351 0 min 0,0 UV-I 0 W/m 11,2 C 9,9 C 19,3 km/h
22.05.2019 22:54 12,1 C 94 % 1013,6 hPa 0,0 l/m 8,2 km/h N 351 0 min 0,0 UV-I 0 W/m 11,2 C 10,9 C 16,1 km/h
22.05.2019 22:51 12,1 C 94 % 1013,5 hPa 0,0 l/m 9,5 km/h NW 311 0 min 0,0 UV-I 0 W/m 11,2 C 10,2 C 16,1 km/h
22.05.2019 22:48 12,0 C 94 % 1013,6 hPa 0,0 l/m 11,8 km/h NW 318 0 min 0,0 UV-I 0 W/m 11,1 C 8,9 C 25,7 km/h
22.05.2019 22:45 12,1 C 94 % 1013,4 hPa 0,0 l/m 13,6 km/h W-NW 292 0 min 0,0 UV-I 0 W/m 11,2 C 8,2 C 20,9 km/h
22.05.2019 22:42 12,1 C 94 % 1013,5 hPa 0,0 l/m 8,9 km/h N-NW 327 0 min 0,0 UV-I 0 W/m 11,2 C 10,5 C 19,3 km/h
22.05.2019 22:39 12,0 C 94 % 1013,4 hPa 0,0 l/m 8,8 km/h NW 320 0 min 0,0 UV-I 0 W/m 11,1 C 10,5 C 16,1 km/h
22.05.2019 22:36 12,0 C 94 % 1013,4 hPa 0,0 l/m 11,7 km/h W-NW 297 0 min 0,0 UV-I 0 W/m 11,1 C 9,0 C 27,4 km/h
22.05.2019 22:33 12,0 C 94 % 1013,4 hPa 0,2 l/m 10,2 km/h W-NW 292 0 min 0,0 UV-I 0 W/m 11,1 C 9,7 C 24,1 km/h
22.05.2019 22:30 12,0 C 94 % 1013,4 hPa 0,0 l/m 9,4 km/h NW 309 0 min 0,0 UV-I 0 W/m 11,1 C 10,1 C 19,3 km/h
22.05.2019 22:27 12,1 C 94 % 1013,4 hPa 0,0 l/m 13,2 km/h N-NW 345 0 min 0,0 UV-I 0 W/m 11,2 C 8,4 C 25,7 km/h
22.05.2019 22:24 12,0 C 94 % 1013,4 hPa 0,0 l/m 9,5 km/h N-NW 339 0 min 0,0 UV-I 0 W/m 11,1 C 10,1 C 16,1 km/h
22.05.2019 22:21 12,1 C 94 % 1013,4 hPa 0,0 l/m 10,1 km/h N-NW 328 0 min 0,0 UV-I 0 W/m 11,2 C 9,9 C 19,3 km/h
22.05.2019 22:18 12,0 C 94 % 1013,4 hPa 0,0 l/m 10,9 km/h NW 311 0 min 0,0 UV-I 0 W/m 11,1 C 9,3 C 22,5 km/h
22.05.2019 22:15 12,1 C 94 % 1013,4 hPa 0,0 l/m 8,9 km/h W-NW 282 0 min 0,0 UV-I 0 W/m 11,2 C 10,5 C 17,7 km/h
22.05.2019 22:12 12,1 C 94 % 1013,5 hPa 0,0 l/m 7,6 km/h NW 323 0 min 0,0 UV-I 0 W/m 11,2 C 11,3 C 20,9 km/h
22.05.2019 22:09 12,1 C 94 % 1013,4 hPa 0,0 l/m 7,5 km/h N-NW 327 0 min 0,0 UV-I 0 W/m 11,2 C 11,4 C 19,3 km/h
22.05.2019 22:06 12,1 C 94 % 1013,5 hPa 0,2 l/m 9,0 km/h N-NW 334 0 min 0,0 UV-I 0 W/m 11,2 C 10,5 C 14,5 km/h
22.05.2019 22:03 12,1 C 94 % 1013,5 hPa 0,0 l/m 9,7 km/h NW 319 0 min 0,0 UV-I 0 W/m 11,2 C 10,1 C 19,3 km/h
22.05.2019 22:00 12,1 C 94 % 1013,4 hPa 0,0 l/m 7,4 km/h N-NW 331 0 min 0,0 UV-I 0 W/m 11,2 C 11,4 C 17,7 km/h
22.05.2019 21:57 12,1 C 94 % 1013,5 hPa 0,2 l/m 9,5 km/h N-NW 329 0 min 0,0 UV-I 0 W/m 11,2 C 10,2 C 24,1 km/h
22.05.2019 21:54 12,1 C 94 % 1013,5 hPa 0,2 l/m 15,0 km/h N-NW 330 0 min 0,0 UV-I 0 W/m 11,2 C 7,7 C 30,6 km/h
22.05.2019 21:51 12,1 C 94 % 1013,4 hPa 0,0 l/m 10,6 km/h W-NW 302 0 min 0,0 UV-I 0 W/m 11,2 C 9,6 C 24,1 km/h
22.05.2019 21:48 12,0 C 94 % 1013,5 hPa 0,0 l/m 13,0 km/h NW 326 0 min 0,0 UV-I 0 W/m 11,1 C 8,4 C 27,4 km/h
22.05.2019 21:45 12,0 C 94 % 1013,5 hPa 0,0 l/m 11,2 km/h N-NW 341 0 min 0,0 UV-I 0 W/m 11,1 C 9,2 C 17,7 km/h
22.05.2019 21:42 12,0 C 94 % 1013,2 hPa 0,0 l/m 11,8 km/h W-NW 295 0 min 0,0 UV-I 0 W/m 11,1 C 8,9 C 20,9 km/h
22.05.2019 21:39 12,0 C 94 % 1013,3 hPa 0,2 l/m 11,1 km/h N-NW 329 0 min 0,0 UV-I 0 W/m 11,1 C 9,2 C 17,7 km/h
22.05.2019 21:36 12,0 C 94 % 1013,3 hPa 0,0 l/m 9,5 km/h N-NW 341 0 min 0,0 UV-I 0 W/m 11,1 C 10,1 C 20,9 km/h
22.05.2019 21:33 12,0 C 94 % 1013,2 hPa 0,0 l/m 7,8 km/h W 281 0 min 0,0 UV-I 0 W/m 11,1 C 11,1 C 17,7 km/h
22.05.2019 21:30 12,0 C 94 % 1013,2 hPa 0,0 l/m 11,9 km/h N-NW 347 0 min 0,0 UV-I 0 W/m 11,1 C 8,9 C 20,9 km/h
22.05.2019 21:27 12,0 C 94 % 1013,1 hPa 0,0 l/m 12,6 km/h N 360 0 min 0,0 UV-I 0 W/m 11,1 C 8,5 C 19,3 km/h
22.05.2019 21:24 12,0 C 94 % 1013,1 hPa 0,0 l/m 10,3 km/h N-NW 338 0 min 0,0 UV-I 0 W/m 11,1 C 9,6 C 20,9 km/h
22.05.2019 21:21 12,0 C 94 % 1013,1 hPa 0,0 l/m 12,2 km/h N 350 0 min 0,0 UV-I 0 W/m 11,1 C 8,7 C 27,4 km/h
22.05.2019 21:18 12,0 C 94 % 1013,0 hPa 0,0 l/m 9,5 km/h N-NW 342 0 min 0,0 UV-I 0 W/m 11,1 C 10,1 C 16,1 km/h
22.05.2019 21:15 12,0 C 94 % 1013,0 hPa 0,0 l/m 13,1 km/h NW 308 0 min 0,0 UV-I 0 W/m 11,1 C 8,3 C 20,9 km/h
22.05.2019 21:12 12,0 C 94 % 1013,0 hPa 0,0 l/m 9,5 km/h N-NW 342 0 min 0,0 UV-I 0 W/m 11,1 C 10,1 C 16,1 km/h
22.05.2019 21:09 12,1 C 94 % 1013,0 hPa 0,0 l/m 11,9 km/h N-NW 328 0 min 0,0 UV-I 0 W/m 11,2 C 9,0 C 17,7 km/h
22.05.2019 21:06 12,1 C 94 % 1013,0 hPa 0,0 l/m 9,6 km/h N-NW 329 0 min 0,0 UV-I 0 W/m 11,2 C 10,1 C 19,3 km/h
22.05.2019 21:03 12,1 C 94 % 1012,9 hPa 0,2 l/m 11,3 km/h N-NW 328 0 min 0,0 UV-I 0 W/m 11,2 C 9,3 C 24,1 km/h
22.05.2019 21:00 12,1 C 94 % 1012,9 hPa 0,0 l/m 9,1 km/h NW 322 0 min 0,0 UV-I 0 W/m 11,2 C 10,4 C 16,1 km/h
22.05.2019 20:57 12,1 C 94 % 1013,0 hPa 0,0 l/m 11,2 km/h NW 316 0 min 0,0 UV-I 0 W/m 11,2 C 9,3 C 16,1 km/h
22.05.2019 20:54 12,1 C 94 % 1012,9 hPa 0,0 l/m 12,5 km/h N-NW 333 0 min 0,0 UV-I 0 W/m 11,2 C 8,7 C 22,5 km/h
22.05.2019 20:51 12,1 C 94 % 1012,9 hPa 0,0 l/m 11,8 km/h N-NW 334 0 min 0,0 UV-I 0 W/m 11,2 C 9,0 C 19,3 km/h
22.05.2019 20:48 12,1 C 94 % 1012,8 hPa 0,0 l/m 11,5 km/h N-NW 331 0 min 0,0 UV-I 0 W/m 11,2 C 9,2 C 24,1 km/h
22.05.2019 20:45 12,1 C 94 % 1012,8 hPa 0,0 l/m 9,5 km/h N-NO 13 0 min 0,0 UV-I 0 W/m 11,2 C 10,2 C 19,3 km/h
22.05.2019 20:42 12,1 C 94 % 1012,7 hPa 0,2 l/m 11,2 km/h W-NW 288 0 min 0,0 UV-I 0 W/m 11,2 C 9,3 C 22,5 km/h
22.05.2019 20:39 12,1 C 94 % 1012,6 hPa 0,0 l/m 9,6 km/h NW 325 0 min 0,0 UV-I 0 W/m 11,2 C 10,1 C 17,7 km/h
22.05.2019 20:36 12,1 C 94 % 1012,7 hPa 0,0 l/m 11,7 km/h NW 318 0 min 0,0 UV-I 5 W/m 11,2 C 9,1 C 20,9 km/h
_ Min-Zeit 00:57 02:00 03:48 - 02:45 - - - - - 02:54 03:30 19:36
Minimum _ 11,7 C 86 % 1007,7 hPa - 7,3 km/h - - - - - 10,0 C 6,1 C 12,9 km/h
_ Max-Zeit 14:33 23:51 01:00 05:54 17:45 - - 07:45 14:00 14:00 16:12 13:12 13:09
Maximum _ 13,6 C 95 % 1014,3 hPa 0,2 l/m 21,9 km/h
N
- - 3 min 3,8 UV-I 418 W/m 12,3 C 11,7 C 45,1 km/h
NW
Durchschnitt _ 12,4 C 91 % 1010,6 hPa #11,2 l/m 12,9 km/h N-NW - #0 min. 0,0 UV-I 0 W/m 11,0 C 9,0 C 24,9 km/h
Schulla EDV